Total_Precipitation_Accumulation
0.26 0.24 0.22 0.25 0.28 0.32 0.39 0.45 0.51 0.69 0.82 0.88 0.98 1.16 1.33 1.50 1.64 1.75 1.65 1.51 1.47 1.64 1.76 1.70 1.79 1.82 1.70 1.72 1.78 1.84 1.78 1.54 1.41 1.49 1.38 1.09 0.85 0.91 0.89 0.86 0.89 0.95 1.05
0.21 0.16 0.13 0.14 0.18 0.21 0.26 0.31 0.39 0.49 0.61 0.78 1.01 1.20 1.49 1.58 1.66 1.79 1.83 1.77 1.71 1.87 1.90 1.99 2.09 2.14 2.14 2.09 1.98 2.07 2.18 1.92 1.69 1.81 2.11 1.70 1.28 0.93 0.74 0.81 0.86 0.96 1.19
0.15 0.12 0.10 0.10 0.14 0.16 0.17 0.24 0.36 0.49 0.70 0.94 1.26 1.55 1.78 1.86 1.90 1.85 1.90 1.98 2.03 2.10 2.13 2.19 2.27 2.30 2.15 2.16 2.24 2.36 2.70 2.52 2.15 1.95 2.19 2.01 1.68 1.37 0.94 0.85 0.90 0.99 1.16
0.14 0.12 0.12 0.11 0.12 0.15 0.20 0.31 0.49 0.68 0.95 1.29 1.63 1.87 2.10 2.21 2.05 2.03 2.06 2.06 2.01 2.04 2.16 2.17 2.17 2.16 2.10 2.17 2.24 2.29 2.68 2.87 2.59 2.25 1.88 1.66 1.62 1.69 1.39 1.02 0.97 1.05 1.06
0.19 0.17 0.18 0.18 0.22 0.28 0.36 0.52 0.77 1.06 1.35 1.58 1.76 1.96 2.09 2.11 2.09 2.05 2.04 1.97 1.94 1.90 1.94 1.96 2.06 2.09 2.13 2.19 2.35 2.48 2.72 2.75 2.74 2.56 2.36 2.13 1.82 1.48 1.53 1.46 1.20 1.16 1.07
0.24 0.24 0.27 0.33 0.40 0.45 0.59 0.77 0.95 1.24 1.42 1.54 1.65 1.82 1.98 2.02 2.04 2.02 2.02 2.01 1.98 1.88 1.82 1.80 1.87 1.99 2.14 2.20 2.30 2.44 2.68 2.80 2.88 2.80 2.52 2.43 2.26 1.95 1.82 1.57 1.42 1.42 1.22
0.34 0.34 0.42 0.56 0.65 0.68 0.77 0.91 1.00 1.18 1.30 1.34 1.42 1.57 1.63 1.69 1.75 1.74 1.70 1.65 1.61 1.61 1.66 1.74 1.81 1.94 2.05 2.12 2.25 2.39 2.44 2.56 2.80 2.81 2.63 2.42 2.21 2.17 2.06 1.95 1.62 1.45 1.28
0.52 0.61 0.73 0.82 0.89 0.89 0.86 0.88 1.01 1.06 1.05 1.08 1.08 1.22 1.31 1.36 1.42 1.42 1.41 1.45 1.50 1.53 1.48 1.52 1.61 1.82 2.01 2.09 2.18 2.20 2.17 2.22 2.42 2.42 2.48 2.45 2.16 2.09 2.00 1.99 2.06 1.78 1.59
0.75 0.97 1.14 1.24 1.31 1.22 1.03 0.90 0.90 0.89 0.87 0.93 0.97 1.04 1.13 1.17 1.19 1.22 1.18 1.27 1.32 1.32 1.28 1.32 1.35 1.47 1.68 1.93 2.08 2.03 1.95 1.91 2.07 2.14 2.23 2.35 2.36 2.25 2.15 2.12 2.18 2.13 1.88
1.18 1.43 1.67 1.78 1.75 1.56 1.30 1.02 0.85 0.82 0.79 0.82 0.88 0.94 0.98 0.99 0.98 1.02 0.96 1.02 1.11 1.11 1.11 1.11 1.18 1.33 1.45 1.64 1.86 1.95 1.88 1.86 1.93 2.03 2.16 2.28 2.38 2.41 2.21 2.17 2.15 2.01 1.91
1.61 1.76 1.91 1.95 1.69 1.51 1.27 1.01 0.86 0.88 0.90 0.90 0.91 0.90 0.85 0.84 0.83 0.82 0.79 0.83 0.90 0.90 0.93 1.10 1.16 1.23 1.31 1.51 1.77 1.95 1.96 1.88 1.88 1.85 1.93 2.09 2.18 2.38 2.34 2.25 2.14 2.02 1.86
1.37 1.45 1.53 1.49 1.44 1.38 1.21 1.04 0.95 0.96 1.00 1.01 1.02 0.94 0.84 0.78 0.77 0.74 0.67 0.68 0.67 0.66 0.77 0.91 0.96 1.01 1.05 1.23 1.53 1.73 1.77 1.75 1.66 1.64 1.76 1.97 2.13 2.34 2.42 2.36 2.22 2.13 2.00
1.21 1.19 1.21 1.25 1.27 1.23 1.11 1.09 1.05 1.06 1.06 1.05 0.96 0.88 0.79 0.68 0.62 0.55 0.51 0.58 0.60 0.67 0.79 0.87 0.92 0.95 1.01 1.05 1.16 1.32 1.44 1.43 1.37 1.41 1.47 1.52 1.72 2.00 2.16 2.18 2.19 2.23 2.21
0.98 0.96 1.03 1.11 1.16 1.12 1.09 1.04 0.99 1.02 1.12 1.18 1.08 0.97 0.85 0.73 0.65 0.57 0.53 0.53 0.56 0.63 0.72 0.79 0.86 0.92 0.97 0.98 0.99 1.02 1.09 1.11 1.16 1.22 1.26 1.31 1.36 1.59 1.75 1.84 2.02 2.25 2.27
0.66 0.71 0.76 0.76 0.73 0.68 0.72 0.75 0.80 0.91 1.06 1.20 1.17 1.03 0.85 0.72 0.65 0.60 0.53 0.52 0.54 0.55 0.63 0.70 0.72 0.77 0.86 0.95 0.97 0.85 0.81 0.91 1.02 1.03 1.00 1.02 1.10 1.23 1.33 1.39 1.74 2.09 2.27
0.42 0.41 0.43 0.42 0.41 0.37 0.34 0.35 0.42 0.58 0.83 1.08 1.06 0.84 0.67 0.54 0.50 0.51 0.50 0.48 0.47 0.52 0.57 0.56 0.59 0.70 0.74 0.88 0.87 0.71 0.70 0.75 0.85 0.94 0.92 0.81 0.80 0.84 0.92 1.00 1.17 1.45 1.69
0.30 0.30 0.30 0.29 0.27 0.26 0.25 0.26 0.34 0.45 0.62 0.73 0.71 0.61 0.50 0.47 0.50 0.52 0.47 0.46 0.47 0.48 0.50 0.49 0.50 0.55 0.68 0.73 0.60 0.58 0.62 0.70 0.76 0.81 0.87 0.79 0.68 0.75 0.80 0.90 0.97 0.98 1.06
0.21 0.21 0.21 0.21 0.24 0.24 0.27 0.30 0.35 0.40 0.44 0.48 0.49 0.44 0.41 0.42 0.45 0.46 0.45 0.52 0.58 0.55 0.55 0.56 0.55 0.54 0.59 0.59 0.48 0.52 0.54 0.60 0.66 0.75 0.84 0.89 0.81 0.81 0.91 0.91 0.95 0.90 0.86
0.13 0.12 0.12 0.12 0.14 0.13 0.14 0.15 0.17 0.18 0.19 0.19 0.21 0.22 0.21 0.23 0.24 0.25 0.32 0.42 0.49 0.53 0.56 0.60 0.60 0.55 0.52 0.54 0.46 0.48 0.54 0.59 0.63 0.66 0.72 0.81 0.78 0.92 1.01 1.01 1.13 1.11 0.98
0.10 0.09 0.08 0.09 0.11 0.10 0.10 0.08 0.07 0.07 0.08 0.08 0.09 0.11 0.12 0.13 0.13 0.15 0.19 0.25 0.26 0.31 0.42 0.45 0.48 0.51 0.50 0.63 0.51 0.51 0.54 0.62 0.72 0.74 0.72 0.86 0.86 0.94 0.93 0.91 1.14 1.15 1.03
0.10 0.10 0.09 0.09 0.10 0.11 0.10 0.09 0.08 0.08 0.08 0.10 0.12 0.12 0.11 0.12 0.12 0.13 0.15 0.17 0.18 0.22 0.26 0.31 0.37 0.44 0.52 0.65 0.62 0.65 0.65 0.71 0.83 0.81 0.74 0.69 0.80 0.69 0.76 0.80 0.84 1.06 1.05
0.09 0.10 0.08 0.09 0.10 0.10 0.10 0.10 0.10 0.10 0.10 0.11 0.11 0.12 0.12 0.12 0.12 0.13 0.15 0.17 0.17 0.18 0.20 0.22 0.28 0.35 0.42 0.50 0.57 0.58 0.62 0.70 0.78 0.82 0.71 0.68 0.76 0.61 0.58 0.60 0.72 0.89 1.01
0.08 0.09 0.10 0.10 0.11 0.10 0.10 0.09 0.11 0.12 0.11 0.11 0.11 0.12 0.14 0.13 0.12 0.14 0.16 0.18 0.18 0.20 0.21 0.24 0.30 0.37 0.43 0.47 0.46 0.44 0.47 0.53 0.61 0.64 0.68 0.67 0.64 0.58 0.53 0.53 0.61 0.69 0.80
0.08 0.08 0.10 0.11 0.12 0.12 0.11 0.12 0.12 0.11 0.10 0.11 0.13 0.14 0.15 0.15 0.15 0.16 0.17 0.19 0.20 0.22 0.25 0.30 0.34 0.40 0.43 0.46 0.44 0.47 0.50 0.49 0.50 0.50 0.50 0.52 0.55 0.58 0.57 0.55 0.57 0.64 0.75
0.10 0.12 0.13 0.12 0.12 0.13 0.14 0.16 0.16 0.13 0.12 0.12 0.13 0.13 0.14 0.15 0.16 0.17 0.17 0.17 0.18 0.22 0.30 0.36 0.40 0.39 0.38 0.34 0.35 0.46 0.56 0.61 0.67 0.72 0.65 0.64 0.65 0.62 0.58 0.55 0.56 0.60 0.66
0.09 0.10 0.12 0.12 0.12 0.12 0.13 0.15 0.18 0.20 0.20 0.17 0.15 0.13 0.13 0.14 0.14 0.15 0.16 0.17 0.18 0.22 0.25 0.26 0.28 0.28 0.29 0.30 0.30 0.36 0.47 0.56 0.68 0.83 0.84 0.88 0.89 0.82 0.73 0.64 0.56 0.53 0.55